Weather History for KGRI - October, 2011

Change the Weather History Date:

Thursday, October 20, 2011

  Actual Average Record
Temperature  
Mean Temperature 39 °F 51 °F  
Max Temperature 56 °F 63 °F 93 °F (1947)
Min Temperature 22 °F 38 °F 12 °F (1916)
Degree Days  
Heating Degree Days 26 14  
Month to date heating degree days 158 222  
Since 1 July heating degree days 319 337  
Cooling Degree Days 0 0  
Month to date cooling degree days 24 10  
Year to date cooling degree days 1112 1033  
Moisture  
Dew Point 25 °F    
Average Humidity 64    
Maximum Humidity 92    
Minimum Humidity 35    
Precipitation  
Precipitation 0.00 in 0.06 in 2.18 in (1904)
Month to date precipitation 2.18 1.31  
Year to date precipitation 25.82 24.31  
Snow  
Snow 0.00 in 0.00 in 1.00 in (1916)
Month to date snowfall 0.0 0.4  
Since 1 July snowfall 0.0 0.5  
Since 1 September snowfall 0.0 0.5  
Snow Depth 0.00 in    
Sea Level Pressure  
Sea Level Pressure 30.12 in    
Wind  
Wind Speed 4 mph (WNW)    
Max Wind Speed 9 mph    
Max Gust Speed 15 mph    
Visibility 10 miles    
Events      
T = Trace of Precipitation, MM = Missing Value Source: NWS Daily Summary

Daily Weather History Graph

Daily Weather History Graph

Search for Another Location

Airport or City:

Trip Planner

Search our weather history database for the weather conditions in past years. The results will help you decide how hot, cold, wet, or windy it might be!

Date:

Astronomy

Oct. 20, 2011 Rise Set
Actual Time 7:49 AM CDT 6:45 PM CDT
Civil Twilight 7:22 AM CDT 7:13 PM CDT
Nautical Twilight 6:50 AM CDT 7:45 PM CDT
Astronomical Twilight 6:18 AM CDT 8:17 PM CDT
Moon 12:33 AM CDT (10/20) 2:58 PM CDT (10/20)
Length of Visible Light 11h 51m
Length of Day
10h 55m
Last Quarter, 44% of the Moon is Illuminated
Oct 20
Last Quarter
Oct 26
New
Nov 2
First Quarter
Nov 10
Full
Nov 18
Last Quarter

Hourly Weather History & Observations

Time (CDT) Temp. Windchill Dew Point Humidity Pressure Visibility Wind Dir Wind Speed Gust Speed Precip Events Conditions
12:53 AM 25.0 °F 19.3 °F 19.9 °F 81% 30.14 in 10.0 mi WNW 4.6 mph - N/A   Clear
1:53 AM 24.1 °F 19.7 °F 19.9 °F 84% 30.14 in 10.0 mi NW 3.5 mph - N/A   Clear
2:53 AM 23.0 °F 15.8 °F 19.0 °F 85% 30.14 in 10.0 mi West 5.8 mph - N/A   Clear
3:53 AM 24.1 °F 16.0 °F 19.9 °F 84% 30.13 in 10.0 mi West 6.9 mph - N/A   Clear
4:53 AM 24.1 °F 15.2 °F 21.0 °F 88% 30.14 in 10.0 mi West 8.1 mph - N/A   Clear
5:53 AM 24.1 °F 16.0 °F 21.0 °F 88% 30.14 in 10.0 mi NW 6.9 mph - N/A   Clear
6:53 AM 23.0 °F 15.8 °F 19.0 °F 85% 30.14 in 10.0 mi West 5.8 mph - N/A   Clear
7:53 AM 21.9 °F 15.7 °F 19.0 °F 89% 30.15 in 10.0 mi NW 4.6 mph - N/A   Clear
8:53 AM 27.0 °F 23.0 °F 21.9 °F 81% 30.17 in 10.0 mi NW 3.5 mph - N/A   Clear
9:53 AM 34.0 °F 29.8 °F 27.0 °F 75% 30.17 in 10.0 mi NNW 4.6 mph - N/A   Clear
10:53 AM 39.0 °F 35.7 °F 27.0 °F 62% 30.17 in 10.0 mi North 4.6 mph - N/A   Clear
11:53 AM 43.0 °F - 26.1 °F 51% 30.16 in 10.0 mi Calm Calm - N/A   Clear
12:53 PM 45.0 °F 42.6 °F 26.1 °F 48% 30.13 in 10.0 mi NE 4.6 mph - N/A   Clear
1:53 PM 50.0 °F - 25.0 °F 38% 30.10 in 10.0 mi Calm Calm - N/A   Clear
2:53 PM 51.1 °F - 27.0 °F 39% 30.08 in 10.0 mi ESE 6.9 mph - N/A   Clear
3:53 PM 52.0 °F - 27.0 °F 38% 30.07 in 10.0 mi Calm Calm - N/A   Clear
4:53 PM 54.0 °F - 27.0 °F 35% 30.06 in 10.0 mi Calm Calm - N/A   Clear
5:53 PM 54.0 °F - 28.0 °F 37% 30.06 in 10.0 mi Calm Calm - N/A   Clear
6:53 PM 46.4 °F - 30.2 °F 53% 30.03 in 10.0 mi Calm Calm - N/A   Clear
7:53 PM 44.1 °F - 30.0 °F 58% 30.10 in 10.0 mi Calm Calm - N/A   Clear
8:53 PM 39.0 °F 35.7 °F 30.0 °F 70% 30.10 in 10.0 mi SSE 4.6 mph - N/A   Clear
9:53 PM 39.9 °F 35.8 °F 28.9 °F 65% 30.10 in 10.0 mi SSE 5.8 mph - N/A   Clear
10:53 PM 41.0 °F 37.1 °F 28.0 °F 60% 30.09 in 10.0 mi South 5.8 mph - N/A   Clear
11:53 PM 36.0 °F - 28.9 °F 76% 30.09 in 10.0 mi North - - N/A   Clear